Regional Weather Roundup
Issued by NWS Tiyan, Guam

Home | Current Version | Previous Version | Text Only | Print | Product List | Glossary On
Versions: 1 2 3 4 5 6 7 8 9 10 11 12 13 14 15 16 17 18 19 20 21 22 23 24 25 26 27 28 29 30 31 32 33 34 35 36 37 38 39 40 41 42 43 44 45 46 47 48 49 50
000
ASGM40 PGUM 300912
RWRGUM
WEATHER ROUNDUP FOR THE MARIANAS
NATIONAL WEATHER SERVICE TIYAN GU
700 PM CHST WED JUL 30 2014

GUZ001>004-301000-
MARIANA ISLANDS-

CITY           SKY/WX    TMP DP  RH WIND       PRES   REMARKS
GUAM AIRPORT   LGT RAIN  79  75  89 SW15G25   29.71R
ANDERSEN AFB   LGT RAIN  75  73  94 SW8       29.71
ROTA AIRPORT   CLOUDY    77  75  94 SE21G28   29.73R
TINIAN AP      MOCLDY    81  79  94 SE10      29.74R
SAIPAN AP      PTCLDY    81  75  83 SE15      29.77R

$$




USA.gov is the U.S. government's official web portal to all federal, state and local government web resources and services.